TimePST,TemperatureF,Dew PointF,Humidity,Sea Level PressureIn,VisibilityMPH,Wind Direction,Wind SpeedMPH,Gust SpeedMPH,PrecipitationIn,Events,Conditions,WindDirDegrees,DateUTC
12:58 AM,35.2,30.9,84,30.27,10.0,Calm,Calm,-,N/A,,Clear,0,2013-01-30 08:58:00
1:58 AM,32.7,30.2,90,30.30,10.0,NNE,3.5,-,N/A,,Clear,30,2013-01-30 09:58:00
2:58 AM,31.3,28.8,90,30.29,10.0,NE,2.3,-,N/A,,Clear,40,2013-01-30 10:58:00
3:58 AM,32.2,30.2,92,30.31,10.0,North,5.8,-,N/A,,Clear,350,2013-01-30 11:58:00
4:58 AM,31.5,29.7,93,30.32,10.0,North,4.6,-,N/A,,Clear,360,2013-01-30 12:58:00
5:58 AM,31.3,30.0,95,30.34,40.0,North,1.2,-,N/A,,Partly Cloudy,360,2013-01-30 13:58:00
6:58 AM,27.7,27.5,99,30.37,90.0,SW,2.3,-,N/A,,Scattered Clouds,230,2013-01-30 14:58:00
7:58 AM,32.4,32.2,99,30.39,90.0,West,4.6,-,N/A,,Scattered Clouds,260,2013-01-30 15:58:00
8:58 AM,38.3,32.2,79,30.39,90.0,Calm,Calm,-,N/A,,Mostly Cloudy,0,2013-01-30 16:58:00
9:58 AM,44.1,32.4,63,30.39,90.0,East,1.2,-,N/A,,Mostly Cloudy,80,2013-01-30 17:58:00
10:58 AM,50.2,32.4,50,30.38,90.0,West,2.3,-,N/A,,Mostly Cloudy,270,2013-01-30 18:58:00
11:58 AM,54.5,31.5,42,30.35,90.0,Variable,2.3,-,N/A,,Partly Cloudy,0,2013-01-30 19:58:00
12:58 PM,58.5,30.4,34,30.30,90.0,North,2.3,-,N/A,,Partly Cloudy,10,2013-01-30 20:58:00
1:58 PM,60.4,28.0,29,30.28,90.0,Calm,Calm,-,N/A,,Partly Cloudy,0,2013-01-30 21:58:00
2:58 PM,61.2,28.9,30,30.27,90.0,North,4.6,-,N/A,,Partly Cloudy,360,2013-01-30 22:58:00
3:58 PM,61.5,29.3,30,30.25,90.0,Variable,1.2,-,N/A,,Partly Cloudy,0,2013-01-30 23:58:00
4:58 PM,60.3,31.3,34,30.25,90.0,NE,3.5,-,N/A,,Partly Cloudy,40,2013-01-31 00:58:00
5:58 PM,57.0,31.1,37,30.26,80.0,Calm,Calm,-,N/A,,Clear,0,2013-01-31 01:58:00
6:58 PM,52.7,32.4,46,30.27,60.0,Variable,2.3,-,N/A,,Clear,0,2013-01-31 02:58:00
7:58 PM,48.6,30.6,50,30.27,60.0,NE,2.3,-,N/A,,Clear,50,2013-01-31 03:58:00
8:58 PM,44.6,29.7,56,30.27,60.0,SSE,3.5,-,N/A,,Clear,160,2013-01-31 04:58:00
9:58 PM,42.3,31.3,65,30.29,60.0,North,3.5,-,N/A,,Clear,10,2013-01-31 05:58:00
10:58 PM,39.9,31.1,71,30.29,10.0,West,4.6,-,N/A,,Clear,270,2013-01-31 06:58:00
11:58 PM,37.6,31.3,78,30.29,10.0,SW,4.6,-,N/A,,Clear,220,2013-01-31 07:58:00